Weather in Padangbai

Indonesia     8°31′58″S   115°30′27″E
temp.,
°C
wind,
m/s
gust,
m/s
humid.,
%
clouds,
%
prec.,
mm/h
press.,
hPa
HPBL,
m
24 june, thu
thu2423:00+23ene119552 1.0 101443
02:00+23e1194100 1.7 101257
05:00+23e1195100 0.1 101256
08:00+24ese129362 1.4 1013213
11:00+27se218178 0.9 1012497
14:00+27se228127 5.3 1010627
17:00+25se228763 2.5 1010392
20:00+23ese129651 3.9 101292
25 june, fri
fri2523:00+23ese019632 1.4 101451
02:00+22nnw019792 1.4 101255
05:00+22nnw019775 0.2 101259
08:00+24ene009499 0.9 101368
11:00+28sse217594 0.2 1012832
14:00+26sse228345 3.4 1011650
17:00+24sse239240 4.1 1011299
20:00+22e019688 5.7 101343
26 june, sat
sat2623:00+23e119679 0.7 101365
02:00+23se119672 1.8 101271
05:00+23se119558 0.4 101263
08:00+24se129213 0.8 1014312
11:00+27se237750 0.3 1013834
14:00+28sse337476 0.8 1010931
17:00+26sse238369 0.5 1011570
20:00+24ese129388 0.8 1013101
27 june, sun
sun2723:00+23e129661 2.1 101493
02:00+23nw119714 2.6 101254
05:00+22nnw119718 0.1 101243
08:00+24n019119 0.1 1013127
11:00+29s226778 0.0 1012926
14:00+28sse336940 0.2 10101000
17:00+25sse129065 1.5 1011222
20:00+23nne229539 3.3 101352
28 june, mon
mon2823:00+22n2294100 0.0 101449
02:00+22n2193100 0.0 101244
05:00+22nnw11946 0.0 101228
08:00+24n018710 0.1 1013115
11:00+29sse226430 0.0 10121202
14:00+28sse327150 0.1 1010929
17:00+26s228365 0.3 1010566
20:00+23ese119564 1.4 101385